Regional Weather Roundup
Issued by NWS

Home | Current Version | Previous Version | Text Only | Print | Product List | Glossary Off
Versions: 1 2 3 4 5 6 7 8 9 10 11 12 13 14 15 16 17 18 19 20 21 22 23 24 25 26 27 28 29 30 31 32 33 34 35 36 37 38 39 40 41 42 43 44 45 46 47 48 49 50

344
ASUS43 KMPX 240310
RWRMN
WEATHER ROUNDUP FOR MINNESOTA
NATIONAL WEATHER SERVICE TWIN CITIES/CHANHASSEN MN
1000 PM CDT TUE AUG 23 2016


NOTE: "FAIR" INDICATES FEW OR NO CLOUDS BELOW 12,000 FEET WITH NO
SIGNIFICANT WEATHER AND/OR OBSTRUCTIONS TO VISIBILITY. N/A MEANS
CURRENT SKY AND/OR WEATHER CONDITIONS ARE NOT AVAILABLE.

MNZ060>063-068>070-240400-
   Twin Cities Metro

CITY           SKY/WX    TMP DP  RH WIND       PRES   REMARKS
TWIN CITIES    HVY RAIN  71  66  84 S18G24    29.84F
ST PAUL        LGT RAIN  70  67  90 S14G22    29.86S
CRYSTAL        LGT RAIN  70  65  84 SE9       29.84S
BLAINE         LGT RAIN  72  70  94 SE9       29.86R
LAKEVILLE      TSTM      66  66 100 S6        29.87F
EDEN PRAIRIE   RAIN      69  66  90 SE8G21    29.84F FOG
LAKEVILLE      TSTM      66  66 100 S6        29.87F
SOUTH ST PAUL  LGT RAIN  69  68  96 S13       29.86S
LAKE ELMO      CLOUDY    70  68  94 SE10      29.87F
$$
MNZ001>005-007-008-013>017-022>024-027-028-240400-
   Northwest Minnesota

CITY           SKY/WX    TMP DP  RH WIND       PRES   REMARKS
BEMIDJI        CLEAR     73  69  86 S6        29.80R
HALLOCK        CLOUDY    73  70  88 W6        29.69R
ROSEAU         CLOUDY    75  70  83 S8        29.69S
WARROAD        PTCLDY    77  72  83 S7        29.70S
THIEF RVR FALL CLOUDY    76  65  68 S15G22    29.74R
CROOKSTON      MOCLDY    75  70  83 W8        29.75R
FOSSTON        CLEAR     72  63  73 S12       29.78S
DETROIT LAKES  CLEAR     72  64  78 S7        29.82R
MOORHEAD       MOCLDY    73  66  78 S8        29.77R
PARK RAPIDS    CLOUDY    73  68  84 S6        29.82R
MAHNOMEN       FAIR      70  64  80 S8        29.78S
$$
MNZ006-009>011-018-025>026-240400-
   North Central Minnesota

CITY           SKY/WX    TMP DP  RH WIND       PRES   REMARKS
BAUDETTE       CLEAR     76  67  73 S8        29.73S
FLAG ISLAND    PTCLDY    75  70  83 S3        29.67F
INTL FALLS     CLEAR     75  68  78 VRB6      29.76F
WASKISH        CLEAR     75  70  83 S5        29.76S
BIG FORK       CLOUDY    73  66  78 S9        29.81S
LONGVILLE      CLOUDY    72  70  94 S10       29.82S
GRAND RAPIDS   CLOUDY    73  69  87 S7        29.85S
CRANE LAKE     PTCLDY    73  66  78 S7        29.81S
ORR            PTCLDY    73  64  73 S8        29.79S
COOK           CLOUDY    73  68  83 S9        29.83F
WALKER         FAIR      73  68  84 S6        29.81R
$$
MNZ012-019>021-037-240400-
   Northeast Minnesota

CITY           SKY/WX    TMP DP  RH WIND       PRES   REMARKS
DULUTH         CLOUDY    73  67  81 S13       29.89S
ELY            CLOUDY    73  66  78 S9        29.86S
HIBBING        CLOUDY    72  67  84 S6        29.85S
EVELETH        CLOUDY    73  66  80 S7        29.87F
DULUTH HARBOR  MOCLDY    75  68  78 S8        29.87R THUNDER
TWO HARBORS    CLOUDY    73  68  83 S3        29.86F
SILVER BAY     MOCLDY    72  66  83 S3        29.87F
GRAND MARAIS     N/A     70  65  84 CALM      29.87S
G MARAIS ARPRT PTCLDY    66  61  82 S10       29.93S
$$
MNZ029>031-032-039>041-046>048-054>057-064-240400-
   West Central Minnesota

CITY           SKY/WX    TMP DP  RH WIND       PRES   REMARKS
FERGUS FALLS   CLOUDY    72  66  83 S6        29.81R
WHEATON        PTCLDY    72  70  94 SE6       29.80R
MORRIS         MOCLDY    68  64  88 SE3       29.80R
ALEXANDRIA     MOCLDY    71  66  84 S7        29.84R
ELBOW LAKE     FAIR      68  66  94 E7        29.81S
WADENA         PTCLDY    70  66  88 S5        29.82R
GLENWOOD       PTCLDY    68  66  94 S3        29.83S
APPLETON       CLOUDY    70  64  83 SE3       29.80R
BENSON         MOCLDY    68  64  88 S5        29.82R
ORTONVILLE     PTCLDY    68  64  88 CALM      29.79S
MADISON        PTCLDY    68  66  94 S8        29.80S
WILLMAR        MOCLDY    68  64  88 SE6       29.84R
$$
MNZ033>034-036-042>043-049>051-058-059-240400-
   Central Minnesota

CITY           SKY/WX    TMP DP  RH WIND       PRES   REMARKS
ST CLOUD       CLOUDY    70  66  87 SE9       29.83S
SAUK CENTRE    FAIR      69  66  91 SE5       29.82F
PAYNESVILLE    CLOUDY    70  65  84 SE10      29.83R
AITKIN         CLOUDY    75  63  64 S8        29.84F
PINE RIVER     CLOUDY    73  68  83 S10       29.86F
BRAINERD       CLOUDY    71  65  81 S7        29.84S
STAPLES        MOCLDY    72  66  83 SE5       29.83R
LONG PRAIRIE   FAIR      68  64  88 CALM      29.83S
LITTLE FALLS   CLOUDY    70  63  78 E3        29.83F
LITCHFIELD     CLOUDY    70  66  88 S3        29.85R
BUFFALO        LGT RAIN  69  64  84 S6        29.86R
MAPLE LAKE     CLOUDY    69  66  89 S5        29.86R
HUTCHINSON     DRIZZLE   67  66  98 SE3       29.86F
$$
MNZ037-044-045-052-053-240400-
   East Central Minnesota

CITY           SKY/WX    TMP DP  RH WIND       PRES   REMARKS
PRINCETON      CLOUDY    73  64  73 SE9       29.85S
MORA           CLOUDY    68  63  83 SE3       29.87S
CAMBRIDGE      CLOUDY    75  63  64 SE7       29.84S
RUSH CITY      CLOUDY    72  64  75 SE7       29.87R
MOOSE LAKE     CLOUDY    70  63  78 CALM      29.85F
HINCKLEY       FAIR      72  64  78 SE3       29.86S
CLOQUET        MOCLDY    72  64  78 S5        29.88S
MCGREGOR       CLOUDY    72  64  78 S7        29.87S
$$
MNZ071>073-080-081-089-090-097-098-240400-
   Southwest Minnesota

CITY           SKY/WX    TMP DP  RH WIND       PRES   REMARKS
MONTEVIDEO     MOCLDY    66  66 100 S6        29.82R
GRANITE FALLS  CLOUDY    68  67  96 SE6       29.83R
CANBY          CLOUDY    69  66  93 E3        29.82S
MARSHALL       CLOUDY    67  66  97 SE8       29.82R
REDWOOD FALLS  CLOUDY    67  65  93 SE5       29.82S
OLIVIA         CLOUDY    64  63  94 SE8       29.82S
PIPESTONE      CLOUDY    70  68  94 CALM      29.82S
WINDOM         HVY RAIN  70  66  88 CALM      29.84S
WORTHINGTON    TSTM      71  71 100 S16G22    29.83S FOG
JACKSON        CLOUDY    70  66  88 S9        29.84R FOG
TRACY          CLOUDY    66  66  99 SE3       29.83R
SLAYTON        CLOUDY    64  64 100 N3        29.85R
$$
MNZ065>067-074>077-082>085-091>093-240400-
   South Central Minnesota

CITY           SKY/WX    TMP DP  RH WIND       PRES   REMARKS
MANKATO        CLOUDY    66  63  88 SE18      29.83S
NEW ULM        LGT RAIN  66  64  94 CALM      29.85S
ST JAMES       RAIN      64  61  88 SE22G29   29.83S
FAIRMONT         N/A    N/A N/A N/A MISG        N/A
GLENCOE        TSTM      67  67 100 CALM      29.85R
FARIBAULT      CLOUDY    66  66 100 SE13G18   29.86F
OWATONNA       CLOUDY    66  63  88 SE10G18   29.87F
WASECA         CLOUDY    64  63  94 SE10      29.90S
ALBERT LEA     TSTM      64  64 100 NW8       29.91R
$$
MNZ078>079-086>088-094>096-240400-
   Southeast Minnesota

CITY           SKY/WX    TMP DP  RH WIND       PRES   REMARKS
ROCHESTER      TSTM      67  66  97 E8        29.94F FOG
RED WING       RAIN      70  66  88 S10G21    29.89F
STANTON        CLOUDY    68  64  88 SE14G22   29.84F
DODGE CENTER   CLOUDY    64  63  94 SE12      29.91F
WINONA         TSTM      70  66  88 NW8       29.95R
AUSTIN         TSTM      64  63  94 NE9       29.90F
PRESTON        TSTM      65  63  94 W10       29.99R
$$
ABBREVIATIONS USED IN REMARKS
   TC - TEMPERATURES IN CELSIUS
  WCI - WIND CHILL INDEX
   HX - HEAT INDEX
  VSB - VISIBILITY
$$




USA.gov is the U.S. government's official web portal to all federal, state and local government web resources and services.